Location: Miles
(41.4492°N, 81.6087°W)
Time: 17:32:08
(UTC+00:00)

S-56A Canister/Altair - Pass Details

Date: 23 September 2024
Orbit: 636 x 2487 km, 38.9° (Epoch: 12 October)

Event Time Altitude Azimuth Distance (km) Brightness Sun altitude
Rises 01:31:17 0° 276° (W) 3,257 12.0 -24.3°
Reaches altitude 10° 01:33:27 10° 271° (W) 2,471 11.0 -24.7°
Maximum altitude 01:39:06 54° 195° (SSW) 1,288 8.5 -25.7°
Enters shadow 01:40:43 46° 155° (SSE) 1,509 8.6 -25.9°
